KC2DUX Weather Reports


Display with metric or nautical units.
time (UTC)temp
F
wind
direction
speed
MPH
gust
MPH
rain 1hr
in
rain 24hr
in
rain mn
in
humidity
%
barometer
mb
20260510215023 75 221 0.0 5.0 0.00 0.00 0.00 51 1012.3
20260510214523 75 221 0.0 3.0 0.00 0.00 0.00 51 1012.3
20260510214023 76 214 0.0 4.0 0.00 0.00 0.00 49 1012.4
20260510213523 76 222 0.0 13.0 0.00 0.00 0.00 49 1012.4
20260510213024 76 219 3.0 13.0 0.00 0.00 0.00 47 1012.3
20260510212522 76 221 5.0 9.0 0.00 0.00 0.00 46 1012.2
20260510212021 76 202 3.0 8.0 0.00 0.00 0.00 45 1012.1
20260510211521 76 208 0.0 3.0 0.00 0.00 0.00 44 1012.2
20260510211021 76 220 0.0 6.0 0.00 0.00 0.00 45 1012.2
20260510210520 76 225 0.0 6.0 0.00 0.00 0.00 44 1012.1
20260510210020 77 211 0.0 0.0 0.00 0.00 0.00 43 1012.1
20260510205520 77 194 0.0 8.0 0.00 0.00 0.00 42 1012.1
20260510205020 77 237 0.0 14.0 0.00 0.00 0.00 42 1012.1
20260510204520 77 244 6.0 14.0 0.00 0.00 0.00 43 1012.1
20260510204019 77 220 4.0 11.0 0.00 0.00 0.00 45 1012.1
20260510203521 78 207 5.0 12.0 0.00 0.00 0.00 45 1012.1
20260510203021 78 165 5.0 11.0 0.00 0.00 0.00 45 1012.0
20260510202520 78 202 2.0 8.0 0.00 0.00 0.00 46 1012.0
20260510202018 78 225 2.0 8.0 0.00 0.00 0.00 48 1012.0
20260510201518 78 211 0.0 7.0 0.00 0.00 0.00 46 1012.1
20260510201019 78 266 0.0 11.0 0.00 0.00 0.00 48 1012.2
20260510200517 79 215 0.0 11.0 0.00 0.00 0.00 47 1012.2
20260510200017 79 209 3.0 9.0 0.00 0.00 0.00 44 1012.2
20260510195516 79 221 1.0 9.0 0.00 0.00 0.00 43 1012.2
20260510195016 79 257 0.0 6.0 0.00 0.00 0.00 43 1012.2
20260510194525 79 234 0.0 8.0 0.00 0.00 0.00 42 1012.2
20260510194016 80 288 1.0 8.0 0.00 0.00 0.00 41 1012.3
20260510193515 80 232 0.0 4.0 0.00 0.00 0.00 44 1012.3
20260510193014 79 237 0.0 5.0 0.00 0.00 0.00 43 1012.4
20260510192516 79 288 0.0 4.0 0.00 0.00 0.00 42 1012.3
20260510192013 79 202 0.0 5.0 0.00 0.00 0.00 41 1012.4
20260510191514 79 231 1.0 7.0 0.00 0.00 0.00 42 1012.4
20260510191013 79 232 3.0 8.0 0.00 0.00 0.00 42 1012.3
20260510190512 79 225 2.0 8.0 0.00 0.00 0.00 42 1012.5
20260510190021 79 296 3.0 6.0 0.00 0.00 0.00 43 1012.4
20260510185511 79 235 3.0 9.0 0.00 0.00 0.00 43 1012.5
20260510185011 79 243 4.0 9.0 0.00 0.00 0.00 42 1012.6
20260510184511 79 267 2.0 8.0 0.00 0.00 0.00 43 1012.6
20260510184011 78 240 0.0 3.0 0.00 0.00 0.00 42 1012.6
20260510183518 78 223 0.0 3.0 0.00 0.00 0.00 42 1012.6
20260510183009 78 247 0.0 3.0 0.00 0.00 0.00 42 1012.6
20260510182516 78 217 0.0 4.0 0.00 0.00 0.00 43 1012.6
20260510182005 77 251 0.0 1.0 0.00 0.00 0.00 47 1012.6
20260510181504 76 273 0.0 9.0 0.00 0.00 0.00 50 1012.7
20260510181004 76 219 6.0 12.0 0.00 0.00 0.00 50 1012.8
20260510180503 76 244 4.0 12.0 0.00 0.00 0.00 51 1013.0
20260510180005 75 300 5.0 12.0 0.00 0.00 0.00 54 1012.9
20260510175501 75 266 6.0 11.0 0.00 0.00 0.00 53 1013.0
20260510175001 75 241 7.0 12.0 0.00 0.00 0.00 53 1013.1
20260510174607 75 219 5.0 10.0 0.00 0.00 0.00 54 1013.0
20260510174104 75 219 6.0 11.0 0.00 0.00 0.00 55 1012.9
20260510173600 75 211 5.0 12.0 0.00 0.00 0.00 54 1012.9
20260510173058 74 248 2.0 12.0 0.00 0.00 0.00 56 1012.7
20260510172601 74 235 0.0 10.0 0.00 0.00 0.00 54 1012.8
20260510172100 74 235 0.0 10.0 0.00 0.00 0.00 55 1012.7
20260510171608 74 242 0.0 7.0 0.00 0.00 0.00 54 1012.8
20260510171058 73 236 0.0 1.0 0.00 0.00 0.00 53 1012.9
20260510170557 73 298 0.0 5.0 0.00 0.00 0.00 54 1013.0
20260510170058 74 255 0.0 5.0 0.00 0.00 0.00 53 1013.0
20260510165556 74 265 0.0 1.0 0.00 0.00 0.00 55 1012.9
20260510165055 74 235 0.0 1.0 0.00 0.00 0.00 55 1012.9
20260510164609 74 271 0.0 1.0 0.00 0.00 0.00 57 1012.9
20260510164055 73 246 0.0 1.0 0.00 0.00 0.00 56 1012.9
20260510163555 74 246 0.0 1.0 0.00 0.00 0.00 57 1013.0
20260510163138 73 242 0.0 3.0 0.00 0.00 0.00 57 1013.0
20260510162554 73 204 0.0 5.0 0.00 0.00 0.00 58 1013.0
20260510162054 73 247 0.0 5.0 0.00 0.00 0.00 58 1012.9
20260510161554 73 300 0.0 1.0 0.00 0.00 0.00 59 1012.9
20260510161054 73 286 0.0 1.0 0.00 0.00 0.00 61 1012.9
20260510160554 73 225 0.0 1.0 0.00 0.00 0.00 60 1012.9
20260510160058 73 275 0.0 1.0 0.00 0.00 0.00 58 1013.0
20260510155553 74 235 0.0 9.0 0.00 0.00 0.00 59 1012.9
20260510155053 74 281 2.0 10.0 0.00 0.00 0.00 59 1012.9
20260510154554 74 271 5.0 10.0 0.00 0.00 0.00 57 1012.7
20260510154052 73 236 0.0 7.0 0.00 0.00 0.00 60 1012.6
20260510153549 73 196 0.0 5.0 0.00 0.00 0.00 62 1012.5
20260510153100 72 215 0.0 5.0 0.00 0.00 0.00 64 1012.6
20260510152548 71 223 0.0 7.0 0.00 0.00 0.00 66 1012.7
20260510152048 71 228 1.0 7.0 0.00 0.00 0.00 66 1012.8
20260510151600 71 302 0.0 4.0 0.00 0.00 0.00 68 1012.9
20260510151046 71 282 0.0 4.0 0.00 0.00 0.00 70 1013.0
20260510150544 70 246 0.0 4.0 0.00 0.00 0.00 69 1012.9
20260510150048 70 208 0.0 1.0 0.00 0.00 0.00 69 1012.9
20260510145544 70 217 0.0 3.0 0.00 0.00 0.00 70 1013.0
20260510145043 70 223 0.0 3.0 0.00 0.00 0.00 70 1013.0
20260510144546 70 248 0.0 4.0 0.00 0.00 0.00 69 1013.0
20260510144045 70 220 0.0 4.0 0.00 0.00 0.00 70 1013.1
20260510143543 69 268 0.0 3.0 0.00 0.00 0.00 71 1013.1
20260510143056 69 256 0.0 3.0 0.00 0.00 0.00 72 1013.0
20260510142542 68 244 0.0 3.0 0.00 0.00 0.00 72 1013.0
20260510142041 68 242 0.0 1.0 0.00 0.00 0.00 73 1012.9
20260510141541 68 229 0.0 1.0 0.00 0.00 0.00 73 1012.8
20260510141041 69 236 0.0 1.0 0.00 0.00 0.00 71 1012.7
20260510140541 69 221 0.0 1.0 0.00 0.00 0.00 71 1012.7
20260510140040 70 271 0.0 1.0 0.00 0.00 0.00 69 1012.7
20260510135540 70 250 0.0 1.0 0.00 0.00 0.00 70 1012.9
20260510135040 69 223 0.0 1.0 0.00 0.00 0.00 69 1012.9
20260510134541 69 243 0.0 4.0 0.00 0.00 0.00 71 1012.9
20260510134039 69 221 0.0 7.0 0.00 0.00 0.00 72 1012.9
20260510133539 69 246 2.0 9.0 0.00 0.00 0.00 70 1012.9
20260510133038 70 200 1.0 6.0 0.00 0.00 0.00 64 1012.9
20260510132537 70 302 0.0 3.0 0.00 0.00 0.00 66 1012.9
20260510132035 69 225 0.0 5.0 0.00 0.00 0.00 68 1012.8
20260510131534 69 325 1.0 5.0 0.00 0.00 0.00 68 1012.9
20260510131032 68 338 1.0 5.0 0.00 0.00 0.00 69 1012.8
20260510130533 67 66 0.0 5.0 0.00 0.00 0.00 70 1012.7
20260510130031 67 304 2.0 4.0 0.00 0.00 0.00 70 1012.9
20260510125529 67 340 1.0 5.0 0.00 0.00 0.00 71 1012.8
20260510125028 67 25 2.0 5.0 0.00 0.00 0.00 72 1012.8
20260510124532 66 26 2.0 5.0 0.00 0.00 0.00 73 1012.7
20260510124032 66 355 1.0 4.0 0.00 0.00 0.00 74 1012.7
20260510123526 66 49 2.0 4.0 0.00 0.00 0.00 75 1012.6
20260510123024 65 10 1.0 4.0 0.00 0.00 0.00 75 1012.6
20260510122524 65 328 1.0 5.0 0.00 0.00 0.00 75 1012.5
20260510122023 65 306 1.0 5.0 0.00 0.00 0.00 75 1012.3
20260510121521 65 32 1.0 4.0 0.00 0.00 0.00 75 1012.1
20260510121022 65 328 0.0 4.0 0.00 0.00 0.00 75 1012.0
20260510120521 65 327 0.0 3.0 0.00 0.00 0.00 77 1012.0
20260510120018 64 277 0.0 3.0 0.00 0.00 0.00 77 1012.0
20260510115516 64 301 1.0 3.0 0.00 0.00 0.00 78 1012.0
20260510115018 63 214 0.0 3.0 0.00 0.00 0.00 80 1011.9
20260510114515 63 239 0.0 2.0 0.00 0.00 0.00 79 1011.9
20260510114017 63 225 0.0 2.0 0.00 0.00 0.00 80 1011.8
20260510113512 62 240 0.0 2.0 0.00 0.00 0.00 80 1011.7
20260510113012 62 235 0.0 0.0 0.00 0.00 0.00 82 1011.6
20260510112514 62 265 0.0 2.0 0.00 0.00 0.00 82 1011.5
20260510112009 62 234 0.0 2.0 0.00 0.00 0.00 83 1011.4
20260510111508 61 238 0.0 0.0 0.00 0.00 0.00 84 1011.3
20260510111006 61 221 0.0 0.0 0.00 0.00 0.00 84 1011.3
20260510110506 60 223 0.0 0.0 0.00 0.00 0.00 85 1011.4
20260510110006 60 235 0.0 0.0 0.00 0.00 0.00 86 1011.3
20260510105505 59 210 0.0 0.0 0.00 0.00 0.00 88 1011.3
20260510105006 58 297 0.0 3.0 0.00 0.00 0.00 89 1011.2
20260510104506 58 259 1.0 4.0 0.00 0.00 0.00 90 1011.2
20260510104005 57 311 1.0 4.0 0.00 0.00 0.00 91 1011.2
20260510103505 57 323 0.0 3.0 0.00 0.00 0.00 91 1011.2
20260510103004 56 271 1.0 3.0 0.00 0.00 0.00 91 1011.1
20260510102503 56 178 0.0 2.0 0.00 0.00 0.00 89 1011.0
20260510102003 56 178 0.0 2.0 0.00 0.00 0.00 88 1010.9
20260510101502 57 134 0.0 4.0 0.00 0.00 0.00 86 1010.8
20260510101001 57 134 0.0 4.0 0.00 0.00 0.00 85 1010.8
20260510100501 58 134 0.0 2.0 0.00 0.00 0.00 83 1010.7
20260510100117 59 134 0.0 2.0 0.00 0.00 0.00 82 1010.7
20260510100002 59 134 0.0 1.0 0.00 0.00 0.00 82 1010.7
20260510095600 60 131 0.0 0.0 0.00 0.00 0.00 82 1010.6
20260510095101 60 252 0.0 0.0 0.00 0.00 0.00 85 1010.6
20260510094606 60 309 0.0 0.0 0.00 0.00 0.00 87 1010.5
20260510094100 59 276 0.0 0.0 0.00 0.00 0.00 90 1010.5
20260510093556 58 292 0.0 0.0 0.00 0.00 0.00 96 1010.5
20260510093059 56 301 0.0 4.0 0.00 0.00 0.00 96 1010.3
20260510092552 54 311 1.0 4.0 0.00 0.00 0.00 96 1010.2
20260510092052 52 307 1.0 3.0 0.00 0.00 0.00 95 1010.2
20260510091551 51 211 0.0 3.0 0.00 0.00 0.00 95 1010.2
20260510091050 51 199 0.0 3.0 0.00 0.00 0.00 95 1010.1
20260510090551 50 93 0.0 1.0 0.00 0.00 0.00 93 1010.0
20260510090057 50 93 0.0 1.0 0.00 0.00 0.00 92 1009.9
20260510085550 50 93 0.0 1.0 0.00 0.00 0.00 92 1009.9
20260510085049 50 93 0.0 1.0 0.00 0.00 0.00 92 1009.9
20260510084609 50 93 0.0 1.0 0.00 0.00 0.00 93 1009.8
20260510084052 50 93 0.0 2.0 0.00 0.00 0.00 92 1009.7
20260510083548 50 93 0.0 2.0 0.00 0.00 0.00 92 1009.8
20260510083050 50 93 0.0 1.0 0.00 0.00 0.00 93 1009.8
20260510082547 50 93 0.0 1.0 0.00 0.00 0.00 92 1009.9
20260510082047 50 93 0.0 1.0 0.00 0.00 0.00 93 1009.9
20260510081553 50 93 0.0 1.0 0.00 0.00 0.00 92 1009.9
20260510081047 50 93 0.0 1.0 0.00 0.00 0.00 92 1009.8
20260510080548 50 93 0.0 2.0 0.00 0.00 0.00 92 1009.9
20260510080051 50 93 0.0 2.0 0.00 0.00 0.00 92 1009.9
20260510075547 50 93 0.0 1.0 0.00 0.00 0.00 92 1009.9
20260510075046 50 93 0.0 13.0 0.00 0.00 0.00 92 1009.9
20260510074546 50 93 0.0 6.0 0.00 0.00 0.00 92 1009.8
20260510074046 50 93 0.0 6.0 0.00 0.00 0.00 92 1009.9
20260510073647 50 93 0.0 2.0 0.00 0.00 0.00 92 1009.9
20260510073045 50 93 0.0 2.0 0.00 0.00 0.00 92 1009.9
20260510072545 50 93 0.0 19.0 0.00 0.00 0.00 92 1010.0
20260510072046 50 93 0.0 19.0 0.00 0.00 0.00 92 1010.0
20260510071546 50 93 0.0 1.0 0.00 0.00 0.00 92 1009.9
20260510071043 50 93 0.0 1.0 0.00 0.00 0.00 92 1009.9
20260510070543 50 93 0.0 1.0 0.00 0.00 0.00 92 1009.8
20260510070047 50 93 0.0 0.0 0.00 0.00 0.00 92 1009.8
20260510065543 50 93 0.0 0.0 0.00 0.00 0.00 92 1009.9
20260510065042 50 93 0.0 0.0 0.00 0.00 0.00 92 1009.9
20260510064542 51 93 0.0 0.0 0.00 0.00 0.00 92 1010.0
20260510064041 51 93 0.0 0.0 0.00 0.00 0.00 92 1010.0
20260510063541 51 93 0.0 0.0 0.00 0.00 0.00 92 1010.0
20260510063044 51 93 0.0 0.0 0.00 0.00 0.00 92 1010.0
20260510062540 51 93 0.0 0.0 0.00 0.00 0.00 91 1010.0
20260510062039 51 93 0.0 1.0 0.00 0.00 0.00 92 1010.1
20260510061538 51 93 0.0 1.0 0.00 0.00 0.00 92 1010.1
20260510061040 51 93 0.0 0.0 0.00 0.00 0.00 92 1010.0
20260510060538 51 93 0.0 0.0 0.00 0.00 0.00 92 1010.0
20260510060037 51 93 0.0 0.0 0.00 0.00 0.00 91 1010.0
20260510055536 52 93 0.0 0.0 0.00 0.00 0.00 92 1010.0
20260510055035 52 93 0.0 0.0 0.00 0.00 0.00 91 1010.1
20260510054535 52 93 0.0 0.0 0.00 0.00 0.00 91 1010.1
20260510054033 52 93 0.0 0.0 0.00 0.00 0.00 92 1010.1
20260510053533 52 93 0.0 0.0 0.00 0.00 0.00 91 1010.1
20260510053036 52 93 0.0 0.0 0.00 0.00 0.00 91 1010.1
20260510052531 53 93 0.0 1.0 0.00 0.00 0.00 91 1010.1
20260510052030 53 93 0.0 1.0 0.00 0.00 0.00 91 1010.2
20260510051529 53 93 0.0 3.0 0.00 0.00 0.00 92 1010.3
20260510051029 53 96 0.0 3.0 0.00 0.00 0.00 92 1010.3
20260510050528 53 107 0.0 2.0 0.00 0.00 0.00 92 1010.3
20260510050027 53 91 0.0 1.0 0.00 0.00 0.00 92 1010.3
20260510045526 53 91 0.0 1.0 0.00 0.00 0.00 91 1010.4
20260510045024 53 91 0.0 1.0 0.00 0.00 0.00 91 1010.4
20260510044530 53 91 0.0 4.0 0.00 0.00 0.00 91 1010.4
20260510044022 54 91 0.0 4.0 0.00 0.00 0.00 91 1010.4
20260510043521 54 91 0.0 2.0 0.00 0.00 0.00 91 1010.3
20260510043021 54 91 0.0 4.0 0.00 0.00 0.00 91 1010.3
20260510042519 54 94 0.0 2.0 0.00 0.00 0.00 91 1010.3
20260510042019 54 92 0.0 12.0 0.00 0.00 0.00 91 1010.3
20260510041519 54 92 0.0 12.0 0.00 0.00 0.00 91 1010.3
20260510041018 54 92 0.0 2.0 0.00 0.00 0.00 92 1010.2
20260510040518 54 108 0.0 2.0 0.00 0.00 0.00 91 1010.3
20260510040017 54 86 0.0 2.0 0.00 0.00 0.00 91 1010.2
20260510035516 54 123 1.0 2.0 0.00 0.00 0.00 91 1010.2
20260510035017 54 90 0.0 3.0 0.00 0.00 0.00 91 1010.2
20260510034517 55 100 0.0 4.0 0.00 0.00 0.00 91 1010.1
20260510034016 54 90 0.0 6.0 0.00 0.00 0.00 91 1010.1
20260510033515 54 149 0.0 4.0 0.00 0.00 0.00 90 1010.1
20260510033015 54 102 1.0 4.0 0.00 0.00 0.00 90 1010.1
20260510032515 54 107 0.0 3.0 0.00 0.00 0.00 90 1010.0
20260510032014 55 76 0.0 2.0 0.00 0.00 0.00 90 1010.0
20260510031514 55 70 1.0 3.0 0.00 0.00 0.00 90 1010.0
20260510031013 55 42 0.0 3.0 0.00 0.00 0.00 90 1010.0
20260510030513 55 67 0.0 2.0 0.00 0.00 0.00 89 1010.0
20260510030012 55 71 0.0 2.0 0.00 0.00 0.00 88 1010.0
20260510025513 55 71 0.0 3.0 0.00 0.00 0.00 88 1009.9
20260510025013 55 71 0.0 3.0 0.00 0.00 0.00 88 1009.8
20260510024511 55 77 0.0 2.0 0.00 0.00 0.00 87 1009.9
20260510024011 55 66 0.0 1.0 0.00 0.00 0.00 87 1009.9
20260510023510 55 66 0.0 1.0 0.00 0.00 0.00 86 1010.0
20260510023011 55 66 0.0 1.0 0.00 0.00 0.00 86 1009.9
20260510022514 56 66 0.0 1.0 0.00 0.00 0.00 86 1010.0
20260510022010 56 66 0.0 1.0 0.00 0.00 0.00 85 1010.1
20260510021509 56 66 0.0 1.0 0.00 0.00 0.00 85 1010.1
20260510021010 56 66 0.0 2.0 0.00 0.00 0.00 85 1010.0
20260510020513 56 80 0.0 2.0 0.00 0.00 0.00 84 1010.0
20260510020009 56 71 0.0 1.0 0.00 0.00 0.00 84 1010.1
20260510015509 57 71 0.0 2.0 0.00 0.00 0.00 83 1010.0
20260510015010 57 71 0.0 2.0 0.00 0.00 0.00 83 1010.0
20260510014508 57 64 0.0 1.0 0.00 0.00 0.00 82 1009.9
20260510014008 57 64 0.0 2.0 0.00 0.00 0.00 82 1009.8
20260510013508 58 64 0.0 2.0 0.00 0.00 0.00 81 1009.8
20260510013008 58 64 0.0 1.0 0.00 0.00 0.00 80 1009.9
20260510012507 58 64 0.0 1.0 0.00 0.00 0.00 80 1009.8
20260510012009 59 64 0.0 1.0 0.00 0.00 0.00 79 1009.9
20260510011511 59 64 0.0 1.0 0.00 0.00 0.00 79 1009.8
20260510011006 59 65 0.0 1.0 0.00 0.00 0.00 79 1009.7
20260510010506 59 65 0.0 2.0 0.00 0.00 0.00 78 1009.7
20260510010006 60 61 0.0 2.0 0.00 0.00 0.00 78 1009.7
20260510005506 60 34 0.0 2.0 0.00 0.00 0.00 77 1009.6
20260510005006 60 57 0.0 2.0 0.00 0.00 0.00 77 1009.6
20260510004507 61 57 0.0 1.0 0.00 0.00 0.00 76 1009.6
20260510004005 61 57 0.0 0.0 0.00 0.00 0.00 76 1009.6
20260510003505 61 57 0.0 2.0 0.00 0.00 0.00 75 1009.7
20260510003006 62 57 0.0 3.0 0.00 0.00 0.00 75 1009.7
20260510002506 62 24 0.0 4.0 0.00 0.00 0.00 75 1009.4
20260510002005 62 355 1.0 4.0 0.00 0.00 0.00 75 1009.4
20260510001504 63 61 1.0 4.0 0.00 0.00 0.00 75 1009.3
20260510001108 63 41 0.0 4.0 0.00 0.00 0.00 74 1009.3
20260510000504 64 71 1.0 5.0 0.00 0.00 0.00 75 1009.3
20260510000008 64 61 0.0 5.0 0.00 0.00 0.00 77 1009.2
20260509235507 65 109 0.0 2.0 0.00 0.00 0.00 77 1009.2
20260509235003 65 109 0.0 2.0 0.00 0.00 0.00 77 1009.1
20260509234503 66 109 0.0 2.0 0.00 0.00 0.00 76 1009.0
20260509234005 66 206 0.0 1.0 0.00 0.00 0.00 75 1008.9
20260509233505 67 206 0.0 1.0 0.00 0.00 0.00 75 1008.8
20260509233004 67 206 0.0 1.0 0.00 0.00 0.00 74 1008.8
20260509232503 67 206 0.0 0.0 0.00 0.00 0.00 74 1008.8
20260509232004 67 219 0.0 2.0 0.00 0.00 0.00 73 1008.8
20260509231503 67 215 1.0 3.0 0.00 0.00 0.00 73 1008.8
20260509231002 67 215 1.0 7.0 0.00 0.00 0.00 73 1008.7
20260509230501 67 212 2.0 7.0 0.00 0.00 0.00 73 1008.6
20260509230003 68 214 3.0 7.0 0.00 0.00 0.00 73 1008.6
20260509225501 68 229 3.0 7.0 0.00 0.00 0.00 72 1008.6
20260509225001 68 252 3.0 10.0 0.00 0.00 0.00 72 1008.7
20260509224501 68 225 5.0 10.0 0.00 0.00 0.00 72 1008.7
20260509224001 68 219 2.0 6.0 0.00 0.00 0.00 72 1008.6
20260509223501 68 208 3.0 6.0 0.00 0.00 0.00 72 1008.7
20260509223001 68 208 0.0 5.0 0.00 0.00 0.00 72 1008.7
20260509222601 68 208 0.0 4.0 0.00 0.00 0.00 72 1008.7
20260509222501 68 205 0.0 4.0 0.00 0.00 0.00 72 1008.7
20260509222100 68 259 0.0 4.0 0.00 0.00 0.00 72 1008.7
20260509221600 68 221 0.0 2.0 0.00 0.00 0.00 72 1008.7
20260509221059 68 212 0.0 2.0 0.00 0.00 0.00 73 1008.8
20260509220558 68 213 0.0 3.0 0.00 0.00 0.00 72 1008.8
20260509220100 68 213 0.0 12.0 0.00 0.00 0.00 72 1008.7
20260509215559 68 226 0.0 6.0 0.00 0.00 0.00 73 1008.6